FW5778 Weather Reports


time (UTC)temp
C
wind
direction
speed
KPH
gust
KPH
rain 1hr
cm
rain 24hr
cm
rain mn
cm
humidity
%
barometer
mb
20210723150542 23 165 1.6 4.8 0.00 1.09 0.00 62 1022.8
20210723150034 23 121 0.0 6.4 0.00 1.09 0.00 62 1022.8
20210723145540 23 139 1.6 9.7 0.00 1.09 0.00 62 1022.8
20210723145034 23 148 4.8 9.7 0.00 1.09 0.00 61 1022.9
20210723144549 23 153 1.6 8.0 0.00 1.09 0.00 63 1022.8
20210723144059 23 158 1.6 8.0 0.00 1.09 0.00 63 1022.8
20210723143528 23 155 4.8 8.0 0.00 1.09 0.00 62 1022.8
20210723143028 23 150 3.2 6.4 0.00 1.09 0.00 64 1022.8
20210723142525 23 148 1.6 4.8 0.00 1.09 0.00 67 1022.8
20210723142045 22 131 1.6 6.4 0.00 1.09 0.00 68 1022.7
20210723141537 22 133 1.6 6.4 0.00 1.09 0.00 68 1022.6
20210723141022 22 142 0.0 4.8 0.00 1.09 0.00 69 1022.7
20210723140537 22 119 0.0 4.8 0.00 1.09 0.00 69 1022.6
20210723140103 22 127 0.0 3.2 0.00 1.09 0.00 71 1022.7
20210723135524 22 133 0.0 1.6 0.00 1.09 0.00 71 1022.6
20210723135019 22 132 0.0 3.2 0.00 1.09 0.00 71 1022.6
20210723134613 21 131 0.0 3.2 0.00 1.09 0.00 72 1022.5
20210723134017 21 146 0.0 6.4 0.00 1.09 0.00 72 1022.5
20210723133517 21 150 1.6 11.3 0.00 1.09 0.00 72 1022.6
20210723133042 21 135 1.6 14.5 0.00 1.09 0.00 73 1022.6
20210723132518 21 144 6.4 17.7 0.00 1.09 0.00 73 1022.5
20210723132015 21 184 8.0 17.7 0.00 1.09 0.00 73 1022.6
20210723131552 21 151 6.4 19.3 0.00 1.09 0.00 72 1022.5
20210723131021 21 160 9.7 19.3 0.00 1.09 0.00 72 1022.5
20210723130514 21 154 8.0 17.7 0.00 1.09 0.00 73 1022.5
20210723130018 21 193 6.4 16.1 0.00 1.09 0.00 73 1022.5
20210723125517 21 165 4.8 12.9 0.00 1.09 0.00 73 1022.4
20210723125013 21 166 4.8 12.9 0.00 1.09 0.00 72 1022.3
20210723124529 21 160 1.6 8.0 0.00 1.09 0.00 70 1022.2
20210723124011 21 158 3.2 8.0 0.00 1.09 0.00 69 1022.2
20210723123516 21 187 1.6 8.0 0.00 1.09 0.00 70 1022.1
20210723123012 20 256 1.6 3.2 0.00 1.09 0.00 70 1022.0
20210723122514 20 177 0.0 1.6 0.00 1.09 0.00 70 1022.0
20210723122011 20 153 0.0 0.0 0.00 1.09 0.00 69 1021.8
20210723121523 20 153 0.0 1.6 0.00 1.09 0.00 69 1021.7
20210723121011 20 153 0.0 3.2 0.00 1.09 0.00 69 1021.6
20210723120507 20 164 0.0 3.2 0.00 1.09 0.00 68 1021.6
20210723120044 20 196 0.0 3.2 0.00 1.09 0.00 68 1021.7
20210723115510 20 150 0.0 4.8 0.00 1.09 0.00 69 1021.6
20210723115006 20 212 1.6 4.8 0.00 1.09 0.00 69 1021.6
20210723114525 20 213 1.6 4.8 0.00 1.09 0.00 69 1021.7
20210723114006 20 240 1.6 4.8 0.00 1.09 0.00 69 1021.7
20210723113505 20 266 0.0 3.2 0.00 1.09 0.00 70 1021.7
20210723113008 20 226 0.0 3.2 0.00 1.09 0.00 70 1021.5
20210723112524 20 220 1.6 3.2 0.00 1.09 0.00 70 1021.4
20210723112005 20 219 0.0 3.2 0.00 1.09 0.00 70 1021.4
20210723111510 20 224 0.0 3.2 0.00 1.09 0.00 71 1021.3
20210723111004 20 224 0.0 3.2 0.00 1.09 0.00 71 1021.3
20210723110507 20 149 0.0 3.2 0.00 1.09 0.00 71 1021.3
20210723110004 20 212 0.0 4.8 0.00 1.09 0.00 71 1021.3
20210723105504 20 235 1.6 4.8 0.00 1.09 0.00 71 1021.4
20210723104503 20 167 0.0 8.0 0.00 1.09 0.00 72 1021.3
20210723104035 20 155 1.6 8.0 0.00 1.09 0.00 72 1021.3
20210723103503 20 167 1.6 4.8 0.00 1.09 0.00 71 1021.4
20210723103012 20 169 3.2 6.4 0.00 1.09 0.00 71 1021.5
20210723102506 20 166 1.6 8.0 0.00 1.09 0.00 70 1021.5
20210723102002 20 211 3.2 8.0 0.00 1.09 0.00 71 1021.5
20210723101502 20 166 0.0 6.4 0.00 1.09 0.00 71 1021.5
20210723101001 20 219 3.2 6.4 0.00 1.09 0.00 71 1021.5
20210723100233 20 235 1.6 8.0 0.00 1.09 0.00 72 1021.5
20210723095600 20 215 1.6 8.0 0.00 1.09 0.00 72 1021.4
20210723095100 20 210 3.2 8.0 0.00 1.09 0.00 73 1021.4
20210723094636 20 208 1.6 6.4 0.00 1.09 0.00 73 1021.4
20210723094100 20 191 1.6 6.4 0.00 1.09 0.00 73 1021.4
20210723093559 20 166 0.0 8.0 0.00 1.09 0.00 74 1021.5
20210723093259 20 230 3.2 6.4 0.00 1.09 0.00 75 1021.5
20210723092559 20 221 3.2 6.4 0.00 1.09 0.00 75 1021.4
20210723092107 20 222 3.2 6.4 0.00 1.09 0.00 75 1021.4
20210723091812 20 224 1.6 4.8 0.00 1.09 0.00 74 1021.5
20210723091058 20 212 0.0 8.0 0.00 1.09 0.00 75 1021.5
20210723090607 20 216 1.6 8.0 0.00 1.09 0.00 76 1021.6
20210723090145 20 230 0.0 4.8 0.00 1.09 0.00 77 1021.6
20210723085557 20 210 0.0 4.8 0.00 1.09 0.00 78 1021.5
20210723085102 20 181 0.0 3.2 0.00 1.09 0.00 78 1021.5
20210723084702 20 214 0.0 3.2 0.00 1.09 0.00 78 1021.5
20210723084100 20 221 0.0 3.2 0.00 1.09 0.00 78 1021.5
20210723083600 20 225 0.0 3.2 0.00 1.09 0.00 78 1021.5
20210723083213 20 151 0.0 3.2 0.00 1.09 0.00 78 1021.5
20210723082555 20 151 0.0 3.2 0.00 1.09 0.00 77 1021.4
20210723082105 20 145 0.0 3.2 0.00 1.09 0.00 76 1021.5
20210723081637 20 130 1.6 3.2 0.00 1.09 0.00 75 1021.5
20210723081053 20 146 0.0 1.6 0.00 1.09 0.00 74 1021.6
20210723080604 20 146 0.0 0.0 0.00 1.09 0.00 73 1021.6
20210723080130 20 146 0.0 3.2 0.00 1.09 0.00 73 1021.6
20210723075551 20 146 1.6 3.2 0.00 1.09 0.00 72 1021.5
20210723075050 20 150 1.6 3.2 0.00 1.09 0.00 72 1021.5
20210723074749 21 146 1.6 3.2 0.00 1.09 0.00 72 1021.5
20210723074056 21 217 0.0 3.2 0.00 1.09 0.00 72 1021.5
20210723073607 21 217 0.0 4.8 0.00 1.09 0.00 72 1021.5
20210723073122 21 213 1.6 4.8 0.00 1.09 0.00 72 1021.5
20210723072551 21 139 0.0 4.8 0.00 1.09 0.00 71 1021.5
20210723072048 21 213 1.6 4.8 0.00 1.09 0.00 71 1021.5
20210723071643 21 230 0.0 4.8 0.00 1.09 0.00 70 1021.6
20210723071047 21 221 0.0 6.4 0.00 1.09 0.00 70 1021.5
20210723070555 21 210 1.6 8.0 0.00 1.09 0.00 70 1021.5
20210723070111 21 175 1.6 8.0 0.00 1.09 0.00 70 1021.5
20210723065547 21 212 1.6 8.0 0.00 1.09 0.00 71 1021.7
20210723065059 21 230 1.6 4.8 0.00 1.09 0.00 72 1021.7
20210723064620 21 138 1.6 9.7 0.00 1.09 0.00 73 1021.7
20210723064118 21 222 4.8 9.7 0.00 1.09 0.00 74 1021.6
20210723063543 21 234 4.8 11.3 0.00 1.09 0.00 76 1021.5
20210723063104 21 223 4.8 9.7 0.00 1.09 0.00 78 1021.5
20210723062542 21 207 4.8 8.0 0.00 1.09 0.00 78 1021.5
20210723062041 21 215 1.6 4.8 0.00 1.09 0.00 77 1021.5
20210723061624 21 245 1.6 4.8 0.00 1.09 0.00 77 1021.5
20210723061040 21 229 3.2 4.8 0.00 1.09 0.00 76 1021.4
20210723060612 21 225 1.6 4.8 0.00 1.09 0.00 76 1021.4
20210723060225 21 246 1.6 6.4 0.00 1.09 1.09 76 1021.4
20210723055548 21 238 3.2 6.4 0.00 1.09 1.09 75 1021.3
20210723055046 21 238 3.2 6.4 0.00 1.09 1.09 75 1021.4
20210723054613 21 222 3.2 6.4 0.00 1.09 1.09 74 1021.5
20210723054037 21 205 0.0 3.2 0.00 1.09 1.09 74 1021.4
20210723053538 21 243 1.6 4.8 0.00 1.09 1.09 74 1021.5
20210723053232 21 253 1.6 4.8 0.00 1.09 1.09 75 1021.7
20210723052538 21 241 0.0 3.2 0.00 1.09 1.09 75 1021.7
20210723052036 21 201 0.0 1.6 0.00 1.09 1.09 75 1021.8
20210723051635 21 92 0.0 0.0 0.00 1.09 1.09 74 1022.0
20210723051041 21 92 0.0 0.0 0.00 1.09 1.09 73 1022.0
20210723050538 21 92 0.0 3.2 0.00 1.09 1.09 73 1022.0
20210723050132 21 92 0.0 3.2 0.00 1.09 1.09 73 1022.0
20210723045536 21 103 0.0 6.4 0.00 1.09 1.09 73 1022.1
20210723045036 22 44 0.0 6.4 0.00 1.09 1.09 73 1022.1
20210723044611 22 61 0.0 4.8 0.00 1.09 1.09 73 1022.1
20210723044047 22 84 0.0 4.8 0.00 1.09 1.09 71 1022.1
20210723043552 22 94 0.0 4.8 0.00 1.09 1.09 69 1022.2
20210723043129 22 94 0.0 8.0 0.00 1.09 1.09 67 1022.1
20210723042549 23 110 0.0 3.2 0.00 1.09 1.09 65 1022.2
20210723042036 23 356 0.0 4.8 0.00 1.09 1.09 61 1022.1
20210723041616 23 283 0.0 6.4 0.00 1.09 1.09 60 1022.0
20210723041034 23 277 0.0 6.4 0.00 1.09 1.09 61 1022.0
20210723040626 23 263 1.6 4.8 0.00 1.09 1.09 62 1022.1
20210723040042 23 208 0.0 4.8 0.00 1.09 1.09 61 1022.1
20210723035535 23 250 1.6 6.4 0.00 1.09 1.09 60 1022.2
20210723035058 23 236 0.0 8.0 0.00 1.09 1.09 62 1022.0
20210723034547 23 220 4.8 9.7 0.00 1.09 1.09 62 1021.9
20210723034037 23 205 4.8 11.3 0.00 1.09 1.09 63 1021.9
20210723033538 22 236 3.2 14.5 0.00 1.09 1.09 67 1021.8
20210723033050 22 230 6.4 14.5 0.00 1.09 1.09 67 1021.7
20210723032530 22 144 4.8 12.9 0.03 1.09 1.09 67 1021.7
20210723032033 23 138 3.2 14.5 0.03 1.09 1.09 64 1021.7
20210723031539 23 197 8.0 17.7 0.03 1.09 1.09 62 1021.5
20210723031039 22 160 4.8 14.5 0.03 1.09 1.09 63 1021.5
20210723030534 22 236 0.0 12.9 0.03 1.09 1.09 66 1021.5
20210723030115 22 207 3.2 17.7 0.03 1.09 1.09 66 1021.5
20210723025542 22 160 11.3 17.7 0.05 1.09 1.09 67 1021.2
20210723025028 21 207 6.4 19.3 0.23 1.09 1.09 77 1021.2
20210723024554 21 298 8.0 19.3 0.33 1.09 1.09 79 1021.3
20210723024032 21 288 8.0 12.9 0.33 1.09 1.09 80 1020.9
20210723023533 21 228 3.2 11.3 0.33 1.09 1.09 79 1020.2
20210723023049 21 160 6.4 11.3 0.38 1.09 1.09 78 1019.6
20210723022523 21 161 1.6 11.3 0.38 1.07 1.07 78 1019.6
20210723022036 21 166 4.8 19.3 0.38 1.07 1.07 78 1019.6
20210723021639 21 139 4.8 19.3 0.51 1.07 1.07 78 1019.4
20210723021023 20 121 3.2 17.7 0.71 1.07 1.07 78 1019.4
20210723020521 21 153 8.0 19.3 0.86 1.07 1.07 76 1019.7
20210723020023 21 164 9.7 20.9 0.91 1.07 1.07 75 1019.5
20210723015519 21 116 9.7 14.5 0.94 1.04 1.04 75 1019.6
20210723015022 22 141 8.0 14.5 0.71 0.84 0.84 72 1019.8
20210723014057 22 135 4.8 14.5 0.66 0.76 0.76 67 1019.5
20210723013548 22 95 4.8 14.5 0.66 0.76 0.76 65 1019.4
20210723013145 22 41 1.6 9.7 0.66 0.76 0.76 62 1018.7
20210723012547 23 326 3.2 9.7 0.58 0.69 0.69 59 1018.5
20210723012058 23 93 3.2 24.1 0.58 0.69 0.69 53 1018.4
20210723011646 23 23 9.7 41.8 0.53 0.64 0.64 48 1018.3
20210723011043 23 253 22.5 41.8 0.33 0.43 0.43 56 1018.6
20210723010542 23 153 24.1 33.8 0.23 0.33 0.33 58 1018.8
20210723010124 25 11 11.3 33.8 0.08 0.18 0.18 56 1017.6
20210723005545 27 334 20.9 33.8 0.03 0.13 0.13 45 1017.5
20210723005040 31 320 9.7 19.3 0.00 0.10 0.10 36 1017.2
20210723004649 32 300 3.2 8.0 0.00 0.10 0.10 30 1016.7
20210723004040 32 202 1.6 4.8 0.00 0.10 0.10 30 1016.2
20210723003542 32 124 0.0 3.2 0.00 0.10 0.10 31 1016.1
20210723003154 32 127 0.0 4.8 0.00 0.10 0.10 30 1016.2
20210723002604 32 168 1.6 8.0 0.00 0.10 0.10 29 1016.2
20210723002039 32 198 3.2 8.0 0.00 0.10 0.10 29 1016.2
20210723001729 33 161 0.0 8.0 0.00 0.10 0.10 29 1016.2
20210723001038 33 91 3.2 6.4 0.00 0.10 0.10 29 1016.3
20210723000612 33 99 0.0 1.6 0.00 0.10 0.10 30 1016.2
20210723000107 33 99 0.0 1.6 0.00 0.10 0.10 28 1016.1
20210722235547 33 23 0.0 4.8 0.00 0.10 0.10 30 1016.2
20210722235107 33 46 1.6 4.8 0.00 0.10 0.10 29 1016.3
20210722234613 33 40 0.0 3.2 0.00 0.10 0.10 27 1016.3
20210722234037 33 40 0.0 3.2 0.00 0.10 0.10 27 1016.3
20210722233538 33 54 1.6 6.4 0.00 0.10 0.10 27 1016.3
20210722233102 34 37 3.2 6.4 0.00 0.10 0.10 27 1016.2
20210722232546 34 61 0.0 3.2 0.00 0.10 0.10 27 1016.3
20210722232035 33 214 0.0 3.2 0.00 0.10 0.10 27 1016.2
20210722231622 34 210 1.6 3.2 0.00 0.10 0.10 26 1016.2
20210722231036 33 220 0.0 4.8 0.00 0.10 0.10 29 1016.2
20210722230539 33 221 1.6 4.8 0.03 0.10 0.10 28 1016.3
20210722230107 33 94 0.0 1.6 0.03 0.10 0.10 31 1016.3
20210722225534 32 94 0.0 4.8 0.05 0.10 0.10 31 1016.4
20210722225033 32 94 0.0 4.8 0.10 0.10 0.10 31 1016.4
20210722224618 32 100 0.0 6.4 0.10 0.10 0.10 29 1016.5
20210722224033 32 325 0.0 6.4 0.10 0.10 0.10 34 1016.5
20210722223529 31 56 0.0 6.4 0.10 0.10 0.10 33 1016.6
20210722223033 31 36 1.6 6.4 0.10 0.10 0.10 33 1016.7
20210722222531 30 12 1.6 4.8 0.10 0.10 0.10 40 1016.8
20210722222052 30 11 1.6 4.8 0.10 0.10 0.10 38 1016.9
20210722221536 29 250 0.0 6.4 0.10 0.10 0.10 44 1017.1
20210722221035 29 303 3.2 12.9 0.10 0.10 0.10 39 1017.3
20210722220523 29 293 4.8 17.7 0.08 0.08 0.08 42 1017.5
20210722220025 30 293 6.4 11.3 0.05 0.05 0.05 43 1017.5
20210722215528 31 319 4.8 9.7 0.03 0.03 0.03 38 1017.5
20210722215022 32 33 1.6 6.4 0.00 0.00 0.00 33 1017.5
20210722214602 32 82 3.2 6.4 0.00 0.00 0.00 30 1017.4
20210722214028 32 124 0.0 4.8 0.00 0.00 0.00 29 1017.5
20210722213523 33 103 1.6 11.3 0.00 0.00 0.00 28 1017.5
20210722213050 33 174 1.6 11.3 0.00 0.00 0.00 28 1017.6
20210722212519 33 128 0.0 14.5 0.00 0.00 0.00 29 1017.6
20210722212028 33 75 3.2 14.5 0.00 0.00 0.00 28 1017.6
20210722211541 33 128 4.8 14.5 0.00 0.00 0.00 29 1017.7
20210722211019 33 150 8.0 16.1 0.00 0.00 0.00 28 1017.7
20210722210516 33 277 6.4 14.5 0.00 0.00 0.00 28 1017.7
20210722210028 33 100 1.6 9.7 0.00 0.00 0.00 29 1017.8
20210722205517 33 53 3.2 14.5 0.00 0.00 0.00 28 1017.9
20210722205014 33 117 8.0 14.5 0.00 0.00 0.00 28 1018.1
20210722204540 33 150 4.8 12.9 0.00 0.00 0.00 29 1018.1
20210722204011 33 245 6.4 12.9 0.00 0.00 0.00 30 1018.2
20210722203509 33 171 3.2 14.5 0.00 0.00 0.00 32 1018.3
20210722203012 32 147 4.8 16.1 0.00 0.00 0.00 30 1018.4
20210722202509 32 143 8.0 16.1 0.00 0.00 0.00 30 1018.5
20210722202006 32 149 4.8 14.5 0.00 0.00 0.00 31 1018.6
20210722201508 32 121 4.8 16.1 0.00 0.00 0.00 30 1018.6
20210722201009 32 93 4.8 19.3 0.00 0.00 0.00 30 1018.8
20210722200505 32 135 1.6 14.5 0.00 0.00 0.00 32 1018.9
20210722200008 32 166 8.0 16.1 0.00 0.00 0.00 30 1018.9
20210722195505 32 133 8.0 22.5 0.00 0.00 0.00 31 1018.9
20210722195008 32 105 9.7 22.5 0.00 0.00 0.00 30 1019.0
20210722194501 32 103 4.8 14.5 0.00 0.00 0.00 32 1019.0
20210722194100 31 106 3.2 14.5 0.00 0.00 0.00 34 1019.0
20210722193559 31 94 4.8 17.7 0.00 0.00 0.00 32 1019.1
20210722193230 31 129 8.0 19.3 0.00 0.00 0.00 33 1019.1
20210722192558 32 121 8.0 19.3 0.00 0.00 0.00 31 1019.2
20210722192057 32 146 6.4 16.1 0.00 0.00 0.00 33 1019.3
20210722191706 31 111 6.4 17.7 0.00 0.00 0.00 32 1019.3
20210722191056 31 127 9.7 20.9 0.00 0.00 0.00 32 1019.4
20210722190600 31 123 11.3 20.9 0.00 0.00 0.00 33 1019.5
20210722190132 31 186 8.0 17.7 0.00 0.00 0.00 34 1019.5
20210722185554 31 172 8.0 16.1 0.00 0.00 0.00 34 1019.5
20210722185059 31 132 8.0 20.9 0.00 0.00 0.00 34 1019.6
20210722184654 31 143 8.0 19.3 0.00 0.00 0.00 34 1019.6
20210722184121 30 253 6.4 17.7 0.00 0.00 0.00 35 1019.7
20210722183617 30 130 8.0 24.1 0.00 0.00 0.00 35 1019.7
20210722183145 30 137 8.0 24.1 0.00 0.00 0.00 35 1019.7
20210722182550 30 105 9.7 24.1 0.00 0.00 0.00 36 1019.7
20210722182104 30 129 11.3 24.1 0.00 0.00 0.00 35 1019.7
20210722181616 30 181 9.7 22.5 0.00 0.00 0.00 36 1019.7
20210722181106 30 169 9.7 24.1 0.00 0.00 0.00 36 1019.7
20210722180604 30 131 12.9 24.1 0.00 0.00 0.00 36 1019.7
20210722180100 29 139 8.0 22.5 0.00 0.00 0.00 38 1019.8
20210722175544 29 146 9.7 20.9 0.00 0.00 0.00 38 1019.9
20210722175053 28 131 6.4 19.3 0.00 0.00 0.00 39 1019.9
20210722174604 28 110 11.3 20.9 0.00 0.00 0.00 38 1020.0
20210722174042 28 127 9.7 20.9 0.00 0.00 0.00 38 1019.9
20210722173609 28 137 9.7 22.5 0.00 0.00 0.00 38 1020.0
20210722173123 28 122 6.4 22.5 0.00 0.00 0.00 39 1020.0
20210722172541 29 130 6.4 20.9 0.00 0.00 0.00 38 1020.0
20210722172057 28 153 6.4 16.1 0.00 0.00 0.00 39 1020.0
20210722171655 28 156 6.4 19.3 0.00 0.00 0.00 40 1020.1
20210722171038 28 191 3.2 20.9 0.00 0.00 0.00 41 1020.1
20210722170542 28 124 9.7 22.5 0.00 0.00 0.00 40 1020.1
20210722170118 28 170 12.9 22.5 0.00 0.00 0.00 39 1020.0
20210722165538 28 145 11.3 20.9 0.00 0.00 0.00 41 1020.1
20210722165032 27 115 11.3 27.4 0.00 0.00 0.00 41 1020.1
20210722164604 27 161 14.5 27.4 0.00 0.00 0.00 41 1020.1
20210722164030 27 149 14.5 24.1 0.00 0.00 0.00 42 1020.2
20210722163530 27 207 4.8 22.5 0.00 0.00 0.00 45 1020.2
20210722163149 27 207 9.7 24.1 0.00 0.00 0.00 45 1020.2
20210722162529 27 167 9.7 24.1 0.00 0.00 0.00 45 1020.2
20210722162029 27 158 11.3 22.5 0.00 0.00 0.00 44 1020.3
20210722161544 27 141 12.9 22.5 0.00 0.00 0.00 44 1020.2
20210722161037 27 163 9.7 20.9 0.00 0.00 0.00 45 1020.1
20210722160526 27 167 8.0 24.1 0.00 0.00 0.00 46 1020.2
20210722160100 27 167 12.9 24.1 0.00 0.00 0.00 44 1020.2
20210722155525 27 120 9.7 22.5 0.00 0.00 0.00 44 1020.1
20210722155035 26 130 11.3 24.1 0.00 0.00 0.00 46 1020.2
20210722154559 26 131 12.9 29.0 0.00 0.00 0.00 46 1020.2
20210722154023 27 136 11.3 29.0 0.00 0.00 0.00 46 1020.1
20210722153526 26 129 11.3 25.7 0.00 0.00 0.00 46 1020.1
20210722153049 26 134 11.3 22.5 0.00 0.00 0.00 46 1020.1
20210722152521 26 150 9.7 22.5 0.00 0.00 0.00 48 1020.0
20210722152020 26 188 9.7 24.1 0.00 0.00 0.00 48 1019.9
20210722151540 26 141 16.1 24.1 0.00 0.00 0.00 48 1019.9
20210722151019 26 150 8.0 19.3 0.00 0.00 0.00 49 1019.9